Regional Weather Roundup
Issued by NWS

Home | Current Version | Previous Version | Graphics & Text | Print | Product List | Glossary On
Versions: 1 2 3 4 5 6 7 8 9 10 11 12 13 14 15 16 17 18 19 20 21 22 23 24 25 26 27 28 29 30 31 32 33 34 35 36 37 38 39 40 41 42 43 44 45 46 47 48 49 50
000
ASUS45 KPSR 291200
RWRAZ

PRELIMINARY ARIZONA REGIONAL HOURLY WEATHER ROUNDUP
NATIONAL WEATHER SERVICE PHOENIX AZ
500 AM MST THU JAN 29 2015

NOTE: FAIR INDICATES FEW OR NO CLOUDS BELOW 12,000 FEET WITH NO
SIGNIFICANT WEATHER AND/OR OBSTRUCTIONS TO VISIBILITY.

AZZ001>003-036-291300-
NORTHWEST ARIZONA

CITY           SKY/WX    TMP DP  RH WIND       PRES   REMARKS
KINGMAN        CLOUDY    48  43  82 NE5       30.15F
6HR MIN TEMP:  46; 6HR MAX TEMP:  49;

$$

AZZ004>008-015-016-018-291300-
NORTH CENTRAL ARIZONA

CITY           SKY/WX    TMP DP  RH WIND       PRES   REMARKS
GRAND CANYON   CLOUDY    41  30  65 E10       30.27S
6HR MIN TEMP:  36; 6HR MAX TEMP:  42;

PRESCOTT       CLOUDY    41  31  67 S5        30.20S
6HR MIN TEMP:  40; 6HR MAX TEMP:  46;

FLAGSTAFF      CLOUDY    32  26  78 CALM      30.27S
6HR MIN TEMP:  32; 6HR MAX TEMP:  37;

PAYSON         MOCLDY    50  30  46 E5        30.20F
$$

AZZ009>014-017-291300-
NORTHEAST ARIZONA

CITY           SKY/WX    TMP DP  RH WIND       PRES   REMARKS
WINSLOW        NOT AVBL
SAINT JOHNS    CLOUDY    38  31  76 S3        30.25F
6HR MIN TEMP:  34; 6HR MAX TEMP:  42;

WINDOW ROCK    CLOUDY    35  28  75 CALM      30.31F
6HR MIN TEMP:  31; 6HR MAX TEMP:  36;

SHOW LOW       MOCLDY    36  28  75 CALM      30.28F
$$

AZZ023-291300-
GREATER PHOENIX AREA

CITY           SKY/WX    TMP DP  RH WIND       PRES   REMARKS
PHOENIX        MOCLDY    59  51  75 E5        30.03F
6HR MIN TEMP:  59; 6HR MAX TEMP:  65;

LUKE AFB       NOT AVBL
6HR MIN TEMP:  53; 6HR MAX TEMP:  62;

DEER VALLEY    MOCLDY    55  45  68 E5        30.04F
6HR MIN TEMP:  55; 6HR MAX TEMP:  61;

SCOTTSDALE     MOCLDY    57  48  72 CALM      30.06F
6HR MIN TEMP:  57; 6HR MAX TEMP:  62;

MESA-GATEWAY   CLOUDY    54  50  87 SE3       30.07R
$$

AZZ027-028-291300-
SOUTHWEST MARICOPA COUNTY AND PINAL COUNTY

CITY           SKY/WX    TMP DP  RH WIND       PRES   REMARKS
CASA GRANDE    MOCLDY    54  48  82 CALM      30.06S
6HR MIN TEMP:  54; 6HR MAX TEMP:  61;

GILA BEND      PTSUNNY   55  53  94 S3        30.04S
6HR MIN TEMP:  54; 6HR MAX TEMP:  61;

$$

AZZ503-504-507>509-291300-
SOUTHEAST ARIZONA

CITY           SKY/WX    TMP DP  RH WIND       PRES   REMARKS
TUCSON         MOCLDY    53  46  77 SE9       30.11S
6HR MIN TEMP:  53; 6HR MAX TEMP:  60;

DAVIS-MONTHAN  MOCLDY    54  45  71 SE6       30.08F
6HR MIN TEMP:  54; 6HR MAX TEMP:  58;

NOGALES        MOCLDY    46  40  79 CALM      30.13F
6HR MIN TEMP:  44; 6HR MAX TEMP:  54;

SIERRA VISTA   MOCLDY    52  37  58 E5        30.17S
SAFFORD        MOCLDY    49  36  61 E5        30.13S
6HR MIN TEMP:  49; 6HR MAX TEMP:  54;

$$

AZZ020-021-025-026-031-291300-
SOUTHWEST ARIZONA

CITY           SKY/WX    TMP DP  RH WIND       PRES   REMARKS
YUMA           NOT AVBL
$$

CAZ031-033-041-043-047-048-061-291300-
SOUTHERN CALIFORNIA

CITY           SKY/WX    TMP DP  RH WIND       PRES   REMARKS
DOWNTOWN L.A.  CLOUDY    62  45  53 CALM      30.02F
6HR MIN TEMP:  61; 6HR MAX TEMP:  65;

L.A. AIRPORT   CLOUDY    65  44  46 N6        30.03F
6HR MIN TEMP:  61; 6HR MAX TEMP:  67;

SAN DIEGO      CLOUDY    62  48  60 W5        30.01F
6HR MIN TEMP:  62; 6HR MAX TEMP:  66;

BURBANK        CLOUDY    60  40  47 NW5       30.03F
6HR MIN TEMP:  59; 6HR MAX TEMP:  64;

ONTARIO        CLOUDY    58  43  57 CALM      30.04F
6HR MIN TEMP:  56; 6HR MAX TEMP:  63;

RIVERSIDE      CLOUDY    62  42  47 E7        30.04F
6HR MIN TEMP:  61; 6HR MAX TEMP:  65;

PALM SPRINGS   CLOUDY    65  41  41 W6        30.08F
6HR MIN TEMP:  61; 6HR MAX TEMP:  67;

EL CENTRO NAS  CLOUDY    58  51  78 N3        30.04F
6HR MIN TEMP:  57; 6HR MAX TEMP:  62;

IMPERIAL       CLOUDY    56  50  80 W3        30.04F
6HR MIN TEMP:  56; 6HR MAX TEMP:  61;

BLYTHE         CLOUDY    58  49  72 W5        30.05F
6HR MIN TEMP:  57; 6HR MAX TEMP:  63;

$$

NVZ020-UTZ003-291300-
SOUTHERN NEVADA-UTAH

CITY           SKY/WX    TMP DP  RH WIND       PRES   REMARKS
LAS VEGAS      NOT AVBL
SALT LAKE CITY CLEAR     31  29  92 SE6       30.37F WCI  25
6HR MIN TEMP:  31; 6HR MAX TEMP:  36;

$$

NMZ009-TXZ055-291300-
NEW MEXICO-WEST TEXAS

CITY           SKY/WX    TMP DP  RH WIND       PRES   REMARKS
ALBUQUERQUE    CLOUDY    44  30  57 NE7       30.31R
6HR MIN TEMP:  42; 6HR MAX TEMP:  48;

EL PASO        CLOUDY    47  37  68 N10       30.19R
6HR MIN TEMP:  43; 6HR MAX TEMP:  51;

$$


........................KEY........................
SKY/WX - SKY CONDITION/WEATHER
TMP    - TEMPERATURE IN FAHRENHEIT
DP     - DEW POINT IN FAHRENHEIT
RH     - RELATIVE HUMIDITY IN PERCENT
WIND   - DIRECTION AND SPEED IN MILES PER HOUR (MPH)
VRB    - VARIABLE WIND DIRECTION
PRES   - MEAN SEA LEVEL PRESSURE IN INCHES OF MERCURY
         F - FALLING PRESSURE   R - RISING PRESSURE
         S - STEADY PRESSURE
VSB    - VISIBILITY IN MILES
HX     - HEAT INDEX IN FAHRENHEIT
WCI    - WIND CHILL INDEX IN FAHRENHEIT
TC     - TEMPERATURE IN CELSIUS WHICH IS ALSO KNOWN AS
         TEMPERATURE IN CENTIGRADE
AFB    - AIR FORCE BASE
         LUKE AFB IS LUKE AIR FORCE BASE
         DAVIS-MONTHAN IS DAVIS-MONTHAN AIR FORCE BASE
NAS    - NAVAL AIR STATION
         EL CENTRO NAS IS EL CENTRO NAVAL AIR STATION
N/A    - NOT AVAILABLE



USA.gov is the U.S. government's official web portal to all federal, state and local government web resources and services.